LiveATC.Net - Listen to live air traffic control over the Internet!


ICAO: VCBI  IATA: CMB   Airport: Bandaranaike International Airport
City: Colombo
Country: Sri Lanka   Continent: Asia
VCBI METAR Weather: VCBI 241410Z 23007KT 9000 FEW018 27/24 Q1010 NOSIG
VCBI Flight Activity (FlightAware)

VCBI Director
Feed Status: DOWN
Last heard on: 2018-06-24 12:57:03 (0 days 1 hours 56 minutes ago)
VCBI Director Audio Archives
FacilityFrequency
Colombo Director132.400

VCBI Tower
Feed Status: DOWN
Last heard on: 2018-05-03 11:26:03 (52 days 3 hours 27 minutes ago)
VCBI Tower Audio Archives
FacilityFrequency
Colombo Tower118.700

NOTICE

Unauthorized use prohibited. See LiveATC.net Terms of Service


Find LiveATC Audio Streams


Airport/ARTCC Code

Frequency Search
(e.g., 124.400, 128.75)
Site-wide search
 


Browse LiveATC Feeds
LiveATC Coverage Map
Top 50 LiveATC Feeds
Bad Weather Areas

LiveATC FAQ
Offer a LiveATC Feed
Contact LiveATC.net
Press Inquiries

LiveATC on iPhone
LiveATC on Android

Windows Phone
Windows 8/10

LiveATC Mobile
(Mobile browser)

ATC Audio Archives
Interesting Recordings

LiveATC Forums


Home Page
About LiveATC.net
Make a Donation
Terms of Use
Privacy Policy

Canadian Air Freqs

AIRMETs/SIGMETs

FAA Airport Status
Nat'l Airspace Status
Arrival Demand Charts


Server Software By:
Icecast.org
Liquidsoap